Regional Weather Roundup
Issued by NWS Bismarck, ND

Home | Current Version | Previous Version | Text Only | Print | Product List | Glossary On
Versions: 1 2 3 4 5 6 7 8 9 10 11 12 13 14 15 16 17 18 19 20 21 22 23 24 25 26 27 28 29 30 31 32 33 34 35 36 37 38 39 40 41 42 43 44 45 46 47 48 49 50
000
ASUS43 KBIS 241110
RWRBIS

NWR BROADCAST TEXT
NATIONAL WEATHER SERVICE BISMARCK ND
600 AM CDT TUE APR 24 2018

NOTE: "FAIR" INDICATES FEW OR NO CLOUDS BELOW 12,000 FEET WITH NO
SIGNIFICANT WEATHER AND/OR OBSTRUCTIONS TO VISIBILITY.


CITY           SKY/WX    TMP DP  RH WIND       PRES   REMARKS
WILLISTON      CLEAR     28  22  78 CALM      30.46R
MINOT          CLEAR     31  24  75 NW10      30.40R
MINOT AFB      NOT AVBL
BISMARCK       CLOUDY    40  35  83 N6        30.37R
DICKINSON      MOCLDY    35  27  72 N9        30.39R
GARRISON         N/A     33  27  78 N8        30.40R
HETTINGER ARPT CLOUDY    33  31  92 NW6       30.40R
JAMESTOWN      LGT RAIN  40  36  86 N13       30.33R
CARRINGTON     FAIR      39  34  81 N10       30.38R
HAZEN          FAIR      37  32  81 N7        30.42S
LINTON           N/A    N/A N/A N/A N13       30.36S
MANDAN         CLOUDY    39  37  93 N13       30.36S
OAKES            N/A     41  41 100 N20G26    30.30R
RUGBY          FAIR      27  25  93 N6        30.39R WCI  20
STANLEY          N/A     28  27  93 NW7       30.44S
TIOGA          FAIR      27  27 100 W6        30.45S WCI  20
WATFORD CITY   FAIR      27  25  93 SW3       30.45R
$$

CITY           SKY/WX    TMP DP  RH WIND       PRES   REMARKS
GRAND FORKS    CLOUDY    39  35  86 N12       30.33R
GRAND FORKS AF NOT AVBL
DEVILS LAKE    FAIR      36  30  79 N9        30.37R
FARGO          LGT RAIN  43  38  82 N21       30.29R
CANDO          FAIR      30  30 100 N9        30.39R
CAVALIER         N/A     36  30  80 NW8       30.36R
GRAFTON        FAIR      37  32  81 N9        30.37R
GWINNER          N/A     43  39  87 N18       30.29R
LANGDON        FAIR      30  30 100 NW6       30.36R
ROLLA          FAIR      30  28  93 NW8       30.38R
WALHALLA       FAIR      32  32 100 NW6       30.37R
$$

CITY           SKY/WX    TMP DP  RH WIND       PRES   REMARKS
ABERDEEN       LGT RAIN  45  41  86 N16       30.25R
MOBRIDGE       LGT SNOW  35  33  92 N23G32    30.27R FOG
BUFFALO          N/A     34  32  92 NW10      30.35S
RAPID CITY     LGT SNOW  34  32  92 NW29G38   30.38R FOG
GLASGOW        CLEAR     35  24  64 CALM      30.45R
SIDNEY         CLEAR     30  26  85 CALM      30.47S
WOLF POINT     CLEAR     25  20  81 CALM      30.47S
GLENDIVE       PTCLDY    34  30  85 NW10      30.46S
MILES CITY     MOCLDY    34  33  96 SW6       30.48R
BAKER          MOCLDY    32  32 100 W7        30.46R
$$

CITY           SKY/WX    TMP DP  RH WIND       PRES   REMARKS
BILLINGS       MOCLDY    34  34 100 SW10      30.48S
GREAT FALLS    CLEAR     32  26  78 S13       30.46S
REGINA         CLEAR     28  21  74 S3        30.42R
ESTEVAN        CLEAR     27  21  80 W8        30.44R WCI  18
$$





USA.gov is the U.S. government's official web portal to all federal, state and local government web resources and services.